TimeEDT,TemperatureF,Dew PointF,Humidity,Sea Level PressureIn,VisibilityMPH,Wind Direction,Wind SpeedMPH,Gust SpeedMPH,PrecipitationIn,Events,Conditions,WindDirDegrees,DateUTC
12:58 AM,58.3,36.1,44,30.06,10.0,North,12.7,-,N/A,,Mostly Cloudy,350,2013-05-13 04:58:00
1:58 AM,56.1,38.7,52,30.07,10.0,North,11.5,-,N/A,,Mostly Cloudy,10,2013-05-13 05:58:00
2:58 AM,54.3,38.8,56,30.07,10.0,North,9.2,-,N/A,,Mostly Cloudy,360,2013-05-13 06:58:00
3:58 AM,52.3,41.2,66,30.08,10.0,North,8.1,-,N/A,,Mostly Cloudy,10,2013-05-13 07:58:00
4:58 AM,53.6,32.9,45,30.09,10.0,North,10.4,-,N/A,,Clear,360,2013-05-13 08:58:00
5:58 AM,47.5,42.6,83,30.10,10.0,North,8.1,-,N/A,,Mostly Cloudy,360,2013-05-13 09:58:00
6:58 AM,50.5,41.9,72,30.13,10.0,North,8.1,-,N/A,,Overcast,360,2013-05-13 10:58:00
7:58 AM,55.6,41.5,59,30.13,10.0,North,10.4,-,N/A,,Mostly Cloudy,10,2013-05-13 11:58:00
8:58 AM,57.4,39.9,52,30.15,10.0,NNW,8.1,-,N/A,,Mostly Cloudy,330,2013-05-13 12:58:00
9:58 AM,59.0,35.8,42,30.15,10.0,NNW,8.1,-,N/A,,Overcast,340,2013-05-13 13:58:00
10:58 AM,60.3,35.4,39,30.14,10.0,Variable,5.8,-,N/A,,Mostly Cloudy,0,2013-05-13 14:58:00
11:58 AM,60.4,34.5,38,30.14,10.0,Variable,4.6,-,N/A,,Mostly Cloudy,0,2013-05-13 15:58:00
12:58 PM,61.5,34.0,36,30.12,10.0,NNW,6.9,-,N/A,,Mostly Cloudy,340,2013-05-13 16:58:00
1:58 PM,61.7,37.0,40,30.10,10.0,NNW,8.1,-,N/A,,Mostly Cloudy,330,2013-05-13 17:58:00
2:58 PM,63.0,36.9,38,30.08,10.0,Variable,5.8,19.6,N/A,,Scattered Clouds,0,2013-05-13 18:58:00
4:58 PM,63.7,33.3,32,30.05,10.0,WNW,13.8,17.3,N/A,,Scattered Clouds,290,2013-05-13 20:58:00
5:33 PM,64.4,32.0,30,30.03,10.0,WNW,12.7,20.7,N/A,,Scattered Clouds,290,2013-05-13 21:33:00
5:54 PM,62.6,32.0,32,30.03,10.0,NW,12.7,-,N/A,,Partly Cloudy,320,2013-05-13 21:54:00
5:58 PM,62.4,32.2,32,30.05,10.0,NNW,11.5,-,N/A,,Partly Cloudy,340,2013-05-13 21:58:00
6:58 PM,60.3,32.9,36,30.06,10.0,NNW,9.2,-,N/A,,Mostly Cloudy,330,2013-05-13 22:58:00
7:58 PM,57.0,32.9,40,30.09,10.0,NW,4.6,-,N/A,,Mostly Cloudy,310,2013-05-13 23:58:00
8:58 PM,55.6,31.8,41,30.12,10.0,NW,5.8,-,N/A,,Mostly Cloudy,310,2013-05-14 00:58:00
9:58 PM,53.1,33.8,48,30.15,10.0,WNW,4.6,-,N/A,,Partly Cloudy,300,2013-05-14 01:58:00
10:58 PM,52.0,34.2,51,30.16,10.0,NW,6.9,-,N/A,,Scattered Clouds,310,2013-05-14 02:58:00
11:58 PM,49.5,36.7,61,30.18,10.0,WNW,4.6,-,N/A,,Clear,290,2013-05-14 03:58:00